Voltar ao catálogo

CO3D2

AtivoCiênciaSSO
NORAD 64902·PAYLOAD·🇫🇷 France

Lançado Jul 26, 2025 de Guiana Space Centre

Loading…

Próximas Passagens (próximas 24 horas)

TLE

AtualizadoSource: Space-Track

Época: Sep 14, 2026, 13:00 UTC

1 64902U 25156D   26257.54178557  .00001456  00000-0  70378-4 0  9999
2 64902  97.4344 334.8490 0001513  99.8763 260.2643 15.20199322 63104

Acompanhe CO3D2 em tempo real com AllMySat

Download on the App Store